Location: G�ppingen
(48.7089°N, 9.6563°E)
Time: 23:07:49
(UTC+02:00)

M-CUBED/EXP-1 PRIME - Visible Passes

Search period start: 19 June 2019 00:00
Search period end: 29 June 2019 00:00
Orbit: 430 x 670 km, 101.7° (Epoch: 18 June)

Date Brightness Start Highest point End Pass type
(mag) Time Alt. Az. Time Alt. Az. Time Alt. Az.
19 Jun ? 00:52:32 10° NNE 00:55:58 79° WNW 00:57:10 39° SSW visible
20 Jun ? 00:48:11 10° NNE 00:51:39 87° ESE 00:52:47 42° SSW visible
20 Jun ? 02:25:02 10° NW 02:25:30 10° NW 02:25:58 10° WNW visible
21 Jun ? 00:43:51 10° NNE 00:47:20 73° ESE 00:48:24 43° S visible
21 Jun ? 02:19:54 10° NNW 02:21:15 12° NW 02:22:39 10° WNW visible
22 Jun ? 00:39:32 10° NNE 00:43:01 62° ESE 00:44:00 43° SSE visible
22 Jun ? 02:15:09 10° NNW 02:17:00 14° NW 02:18:54 10° W visible
23 Jun ? 00:35:13 10° NNE 00:38:42 52° ESE 00:39:37 40° SSE visible
23 Jun ? 02:10:32 10° NNW 02:12:45 16° WNW 02:15:02 10° W visible
24 Jun ? 00:30:56 10° NNE 00:34:22 44° ESE 00:35:14 37° SE visible
24 Jun ? 02:05:58 10° NNW 02:08:29 18° WNW 02:10:56 11° WSW visible
25 Jun ? 00:26:38 10° NE 00:30:03 37° ESE 00:30:51 33° SE visible
25 Jun ? 02:01:27 10° N 02:04:12 21° WNW 02:06:33 13° WSW visible
26 Jun ? 00:22:22 10° NE 00:25:42 32° ESE 00:26:27 30° SE visible
26 Jun ? 01:56:57 10° N 01:59:55 24° WNW 02:02:09 15° WSW visible
27 Jun ? 00:18:08 10° NE 00:21:22 28° ESE 00:22:03 26° ESE visible
27 Jun ? 01:52:29 10° N 01:55:38 28° WNW 01:57:46 17° WSW visible
28 Jun ? 00:13:55 10° NE 00:17:01 24° ESE 00:17:39 23° ESE visible
28 Jun ? 01:48:02 10° N 01:51:21 33° WNW 01:53:22 20° WSW visible
